Weather History for Brookings, OR

Change the Weather History Date:

Sunday, February 17, 2013

  Actual Average Record
Temperature  
Mean Temperature 45 °F -  
Max Temperature 52 °F 55 °F 69 °F (1985)
Min Temperature 38 °F 43 °F 29 °F (2006)
Degree Days  
Heating Degree Days 20    
Moisture  
Dew Point 36 °F    
Average Humidity 71    
Maximum Humidity 100    
Minimum Humidity 50    
Precipitation  
Precipitation 0.00 in - - ()
Sea Level Pressure  
Sea Level Pressure 30.16 in    
Wind  
Wind Speed 7 mph (North)    
Max Wind Speed 14 mph    
Max Gust Speed -    
Visibility 9 miles    
Events      
Averages and records for this station are not official NWS values.
T = Trace of Precipitation, MM = Missing Value Source: NWS Daily Summary

Daily Weather History Graph

Daily Weather History Graph

Search for Another Location

Airport:

Trip Planner

Search our weather history database for the weather conditions in past years. The results will help you decide how hot, cold, wet, or windy it might be!

Date:

Astronomy

Feb. 17, 2013 Rise Set
Actual Time 7:09 AM PST 5:52 PM PST
Civil Twilight 6:41 AM PST 6:21 PM PST
Nautical Twilight 6:08 AM PST 6:54 PM PST
Astronomical Twilight 5:36 AM PST 7:26 PM PST
Moon 10:58 AM PST (2/17) 1:01 AM PST (2/17)
Length of Visible Light 11h 40m
Length of Day
10h 43m
Waxing Crescent, 50% of the Moon is Illuminated
Feb 17
Waxing Crescent
Feb 17
First Quarter
Feb 25
Full
Mar 4
Last Quarter
Mar 11
New

Hourly Weather History & Observations

Time (PST) Temp. Windchill Dew Point Humidity Pressure Visibility Wind Dir Wind Speed Gust Speed Precip Events Conditions
12:56 AM 45.0 °F 41.8 °F 32.9 °F 63% 30.25 in 10.0 mi North 5.8 mph - N/A   Clear
1:56 AM 43.0 °F 38.8 °F 34.0 °F 71% 30.25 in 10.0 mi North 6.9 mph - N/A   Clear
2:56 AM 45.0 °F 41.8 °F 31.1 °F 58% 30.25 in 10.0 mi Variable 5.8 mph - N/A   Clear
3:56 AM 43.9 °F 39.3 °F 30.0 °F 58% 30.24 in 10.0 mi North 8.1 mph - N/A   Clear
4:56 AM 43.0 °F 37.2 °F 30.0 °F 60% 30.23 in 10.0 mi NNE 10.4 mph - N/A   Clear
5:56 AM 43.0 °F 38.2 °F 30.0 °F 60% 30.24 in 10.0 mi NNE 8.1 mph - N/A   Clear
6:56 AM 43.0 °F 37.2 °F 30.0 °F 60% 30.22 in 10.0 mi NNE 10.4 mph - N/A   Clear
7:56 AM 43.9 °F 39.9 °F 29.1 °F 56% 30.22 in 10.0 mi Variable 6.9 mph - N/A   Clear
8:56 AM 45.9 °F 41.7 °F 30.0 °F 54% 30.22 in 10.0 mi NNW 8.1 mph - N/A   Clear
9:56 AM 47.8 °F - 30.0 °F 50% 30.21 in 10.0 mi North 5.8 mph - N/A   Clear
10:56 AM 48.9 °F - 34.0 °F 56% 30.19 in 10.0 mi NW 9.2 mph - N/A   Clear
11:56 AM 50.0 °F - 36.0 °F 59% 30.17 in 10.0 mi NW 13.8 mph - N/A   Clear
12:56 PM 50.9 °F - 36.9 °F 59% 30.14 in 10.0 mi North 12.7 mph - N/A   Clear
1:56 PM 52.9 °F - 37.9 °F 57% 30.12 in 10.0 mi NNW 10.4 mph - N/A   Clear
2:56 PM 52.9 °F - 39.9 °F 61% 30.10 in 9.0 mi NW 11.5 mph - N/A   Clear
3:56 PM 50.9 °F - 39.9 °F 66% 30.09 in 9.0 mi NW 11.5 mph - N/A   Clear
4:56 PM 50.0 °F - 41.0 °F 71% 30.08 in 8.0 mi NNW 5.8 mph - N/A   Clear
5:56 PM 46.9 °F - 43.0 °F 86% 30.07 in 7.0 mi Calm Calm - N/A   Clear
6:56 PM 43.9 °F 42.3 °F 43.0 °F 97% 30.08 in 8.0 mi Variable 3.5 mph - N/A   Clear
7:56 PM 43.0 °F - 43.0 °F 100% 30.09 in 8.0 mi Calm Calm - N/A   Clear
8:56 PM 39.9 °F 37.8 °F 39.9 °F 100% 30.09 in 8.0 mi NNE 3.5 mph - N/A   Clear
9:56 PM 41.0 °F 37.1 °F 41.0 °F 100% 30.09 in 8.0 mi North 5.8 mph - N/A   Clear
10:56 PM 38.8 °F - 38.8 °F 100% 30.09 in 7.0 mi Calm Calm - N/A   Clear
11:56 PM 41.0 °F - 41.0 °F 100% 30.08 in 7.0 mi Calm Calm - N/A   Scattered Clouds